Wind_Speed
7 7 8 9 9 10 10 11 12 12 13 13 13 13 14 14 14 13 13 13 13 14 14 15 15 16 17 19 21 21 20 19 19 17 16 14 12 11 11 12 14 15 15 16 17 18 20 19 17 17 17 17
7 8 9 9 9 10 10 11 11 12 12 13 13 13 13 14 14 14 13 13 13 13 14 15 16 16 16 17 18 20 20 20 20 19 18 18 15 14 14 14 15 17 16 16 16 16 17 17 16 16 16 16
9 9 10 10 10 10 11 11 11 12 12 13 13 13 13 13 13 13 13 13 13 14 14 15 15 16 17 17 17 18 19 19 19 19 18 19 18 17 17 16 16 18 18 18 18 16 15 15 16 16 14 14
9 10 11 11 11 12 12 13 13 13 13 14 14 15 15 15 15 14 14 14 14 15 15 15 15 16 17 18 18 18 18 18 18 19 18 18 18 18 19 18 18 18 18 18 19 18 16 15 15 15 14 14
10 11 12 13 13 13 14 14 15 15 15 15 16 17 17 18 18 19 19 18 18 17 17 17 16 15 16 17 18 18 18 18 17 18 18 18 18 18 21 21 21 19 18 17 17 17 17 17 16 15 15 15
12 13 13 14 14 15 16 16 16 16 17 17 17 18 18 19 20 21 22 22 22 21 21 20 19 18 17 17 17 18 19 18 18 18 19 19 18 18 20 22 23 22 21 19 17 17 17 17 18 17 17 17
13 14 15 15 15 16 16 16 17 17 17 18 18 19 19 20 20 21 21 22 23 23 22 22 22 21 20 19 18 18 19 19 19 18 18 18 19 19 19 20 22 22 22 22 22 21 20 19 20 20 19 19
13 14 15 15 15 16 16 16 17 17 18 18 19 19 19 20 20 20 20 21 21 22 22 23 23 23 22 22 21 20 19 19 19 19 19 19 19 20 20 20 21 22 22 23 23 25 25 24 23 22 21 20
14 15 15 15 16 16 16 16 17 17 18 18 18 19 19 19 19 20 20 21 21 22 23 24 24 24 25 25 25 24 22 22 21 21 21 21 21 21 21 21 21 22 23 22 22 23 25 25 24 23 22 22
15 15 15 16 16 16 17 17 17 18 18 19 19 19 19 19 20 20 20 21 21 22 23 24 25 26 26 27 27 27 26 26 24 23 22 22 23 23 23 22 22 22 23 23 22 21 23 25 25 24 24 24
14 15 15 15 16 16 17 18 18 19 20 20 20 20 21 21 21 22 22 22 23 23 23 24 24 25 26 27 28 29 29 29 28 27 25 24 24 24 24 24 23 22 23 24 23 22 22 24 25 25 26 26
13 14 14 15 16 17 18 19 19 20 21 21 22 22 22 22 22 23 23 23 24 25 25 25 25 25 25 26 27 28 29 30 30 30 29 27 26 25 26 26 26 25 24 24 25 25 23 24 25 26 26 27
14 15 15 15 16 17 19 19 20 21 21 21 22 22 22 23 23 23 24 24 24 25 25 25 25 25 26 26 27 27 28 29 30 31 31 31 29 28 27 27 28 28 27 26 26 26 26 25 26 27 28 28
15 16 16 16 17 18 19 19 20 20 21 21 21 22 23 23 23 23 24 24 24 24 25 25 25 25 26 26 27 27 28 29 30 31 32 33 33 32 30 28 28 29 30 29 27 26 27 27 27 28 29 29
15 16 16 17 18 18 19 19 20 20 20 21 21 22 22 23 23 23 23 24 24 24 24 24 25 25 26 26 26 27 27 28 29 30 31 32 33 34 33 31 29 29 30 30 30 28 27 27 27 27 29 30
14 15 16 18 19 19 20 21 21 21 21 21 21 22 22 22 23 23 23 23 24 24 24 24 24 25 25 26 26 27 27 27 28 29 30 31 32 33 34 33 32 31 30 30 31 30 29 28 27 28 28 29
14 15 16 18 19 20 21 22 22 23 23 22 22 22 22 22 22 23 22 23 23 24 24 24 25 25 25 26 26 26 27 27 27 28 29 30 31 32 33 34 34 33 32 31 31 31 32 30 28 28 28 29
15 16 17 18 19 20 21 22 23 24 25 24 24 23 23 23 23 23 23 23 23 23 24 24 25 25 25 26 26 26 26 27 27 28 29 30 31 32 33 35 35 35 35 33 32 32 32 32 31 29 29 29
14 16 17 18 19 20 22 23 24 25 26 26 26 26 25 25 25 25 25 24 24 24 24 24 25 26 26 26 26 26 27 27 27 27 28 30 31 32 33 34 35 36 37 36 34 33 33 34 33 32 30 29
14 16 17 19 20 21 22 23 24 25 26 27 27 27 27 26 26 26 26 26 26 25 26 26 26 26 26 27 27 27 27 28 28 28 28 28 30 32 32 34 35 36 37 37 36 35 35 34 34 34 32 30
14 16 18 19 20 21 22 22 24 24 25 27 27 27 27 27 27 27 27 27 27 27 27 27 27 27 27 27 27 27 28 28 29 29 29 28 28 30 32 33 34 36 37 38 38 37 36 35 34 33 32 31
15 16 18 19 20 21 22 23 23 24 25 26 27 27 28 28 28 28 28 28 28 28 28 28 28 28 28 28 28 27 27 28 28 28 29 29 28 28 30 32 34 35 36 37 38 38 37 35 33 31 30 29
14 16 17 19 21 21 23 23 24 24 25 26 27 27 28 28 29 29 29 29 29 29 29 29 29 29 29 29 29 28 28 27 27 28 29 30 30 28 28 29 32 34 36 37 37 38 37 34 32 29 28 27
15 16 17 19 20 21 22 23 24 24 25 26 27 27 28 28 28 29 29 29 30 30 30 29 29 30 30 30 30 30 29 28 28 28 29 30 30 30 29 27 28 32 35 36 37 37 36 34 32 29 26 25
15 16 18 19 21 22 23 24 24 25 25 26 27 28 28 28 29 29 29 29 30 30 30 30 30 30 30 30 31 31 30 29 28 28 29 29 29 30 30 28 26 29 33 35 36 37 36 35 34 29 23 21
16 16 17 20 21 22 24 24 25 26 26 26 27 28 29 29 29 29 29 29 30 30 30 30 30 30 30 30 31 31 31 30 30 28 28 29 29 28 28 28 26 26 30 32 33 35 36 35 34 31 26 22
17 16 18 20 22 23 25 26 26 27 28 28 28 29 30 30 30 30 30 29 29 30 29 29 29 29 29 29 30 31 31 31 31 30 29 29 30 29 28 27 25 23 25 28 30 30 30 31 31 32 30 25
17 17 19 21 22 24 26 27 27 29 29 28 29 30 31 31 31 31 30 29 29 29 29 29 28 28 29 29 29 30 30 31 30 30 30 29 29 30 30 29 26 23 20 23 27 26 25 24 21 21 26 32
18 19 20 21 23 24 26 27 28 29 29 29 30 31 31 32 32 32 32 30 30 30 29 28 28 27 27 28 28 29 30 30 30 30 30 30 29 29 30 30 28 24 20 19 21 21 20 17 12 16 25 32
19 21 22 23 24 25 27 28 29 29 29 29 31 32 32 32 33 33 33 32 30 30 29 28 27 27 27 27 27 28 29 29 30 29 28 29 29 29 30 30 29 26 22 19 18 18 16 14 14 21 26 25
21 22 23 24 25 26 27 29 30 29 29 30 32 33 33 33 34 34 34 33 32 31 30 29 28 27 26 26 26 27 28 29 29 28 27 28 29 29 30 30 29 28 24 21 19 17 17 17 17 20 22 21
Wind_Direction
42 40 36 33 30 28 25 21 18 17 17 17 16 15 14 12 9 4 356 351 345 340 336 333 330 329 327 328 333 339 341 336 334 336 336 332 331 335 332 335 336 329 325 325 326 328 328 326 324 324 325 323
33 33 29 24 21 21 21 20 17 14 13 12 12 12 12 12 11 9 4 359 351 346 341 336 334 333 331 330 328 331 339 340 334 331 330 327 326 331 330 332 335 331 327 321 321 329 332 330 327 325 322 321
26 26 23 20 17 17 17 18 18 16 14 12 10 11 11 12 10 9 7 5 360 355 351 344 338 335 334 334 332 330 334 338 334 331 328 324 324 328 329 331 335 332 330 324 320 323 328 328 327 324 318 314
24 25 23 22 19 19 19 18 18 17 17 15 14 13 12 12 11 12 10 8 5 2 359 354 349 342 339 335 334 333 333 333 332 330 328 323 319 318 319 322 325 326 327 325 321 319 320 322 324 321 310 303
24 25 24 22 20 19 19 18 18 16 16 15 15 14 12 11 10 11 11 10 8 7 4 1 358 353 347 342 338 335 333 331 330 328 328 324 317 311 309 308 308 310 315 318 317 314 314 317 318 316 307 298
24 23 22 21 20 20 19 18 17 16 16 14 14 13 12 11 10 9 7 6 6 6 5 3 2 359 354 350 345 341 338 336 332 326 324 324 322 316 309 305 303 302 303 304 307 307 306 309 311 310 306 302
22 21 21 20 20 20 19 17 15 14 14 13 12 11 10 10 9 8 5 3 3 1 1 1 1 0 358 355 351 346 342 340 336 331 325 322 323 323 317 311 309 307 304 300 300 301 300 302 304 303 302 300
21 21 19 19 19 19 18 17 14 11 11 11 11 10 8 7 6 4 4 1 359 357 356 356 356 356 355 355 354 350 346 341 338 335 331 327 324 321 320 319 316 313 311 306 302 301 301 303 303 302 301 298
20 18 16 16 17 15 15 16 14 10 9 10 9 8 7 5 4 2 1 359 357 356 354 353 352 351 351 351 351 350 348 346 342 338 334 332 329 326 324 323 322 318 316 314 310 305 302 303 304 303 302 298
19 16 14 14 14 12 12 14 13 10 8 8 8 7 6 4 3 1 360 358 357 356 354 353 351 349 349 348 347 346 347 347 345 342 339 334 331 330 329 326 324 322 321 320 316 309 304 303 304 303 302 299
17 15 14 14 13 12 12 13 11 10 9 7 6 4 3 2 1 0 359 357 356 355 355 354 352 350 348 346 345 344 344 344 343 343 342 339 335 332 330 328 326 323 322 322 319 313 306 303 302 301 300 300
15 15 15 14 13 12 11 11 10 10 9 6 4 3 1 1 360 358 357 357 356 355 354 352 352 350 348 346 345 343 341 340 340 340 340 340 339 335 331 329 328 326 323 322 320 318 312 306 303 301 298 297
11 12 12 12 11 11 9 8 8 8 6 4 3 1 360 359 358 357 356 356 355 353 352 350 350 349 347 346 344 343 341 339 339 338 338 338 338 337 334 331 329 327 327 325 322 320 318 313 307 304 301 297
7 7 6 8 8 8 7 4 5 5 4 3 2 360 359 358 356 356 355 354 353 352 350 349 347 346 346 345 343 342 341 340 339 337 336 336 335 335 335 333 330 328 327 327 326 323 319 316 311 306 304 302
3 2 2 4 4 4 3 2 1 2 3 1 0 359 358 357 356 355 354 352 352 350 349 347 346 345 344 342 341 340 340 339 338 337 335 334 333 333 332 332 331 328 326 325 326 325 322 318 314 309 305 304
357 358 0 2 2 1 360 359 357 358 0 360 358 357 356 356 355 354 354 352 351 350 349 347 346 344 343 341 340 339 338 337 336 334 333 331 330 329 329 329 328 328 326 325 325 325 325 322 317 312 308 306
351 354 359 360 359 358 357 356 355 355 356 357 356 354 353 353 353 353 353 353 351 350 349 347 346 344 343 341 339 337 335 334 333 331 329 328 327 326 325 325 325 325 325 325 324 324 324 324 321 316 311 307
345 350 355 356 356 356 354 354 354 353 353 354 353 352 351 351 351 350 350 350 351 350 349 348 345 344 342 341 338 337 334 332 331 330 328 326 325 324 324 323 323 323 322 323 323 323 322 323 323 320 315 310
340 347 350 351 353 352 352 353 353 352 352 351 350 350 349 349 348 348 347 347 347 348 348 348 346 343 341 340 338 336 334 332 330 329 327 326 324 323 323 321 321 321 320 321 322 322 321 321 323 323 319 314
336 343 346 347 349 349 349 350 351 351 350 349 348 347 347 346 346 346 345 344 344 345 345 345 345 343 341 339 337 336 334 332 330 329 327 326 324 322 322 320 319 318 318 318 320 320 321 322 322 323 322 317
333 339 342 343 344 345 345 346 347 347 346 346 346 346 345 344 344 344 342 342 342 342 342 342 342 341 339 338 336 335 333 331 329 328 327 326 324 322 321 321 319 317 316 316 318 319 320 321 322 323 323 320
328 334 336 338 339 340 340 340 342 342 343 343 343 343 343 343 342 341 340 340 339 339 339 339 339 338 337 336 335 334 332 330 328 326 325 324 324 323 322 322 320 318 316 315 315 316 318 321 323 323 321 319
322 328 331 332 333 335 335 335 337 338 338 339 339 340 341 341 340 338 338 338 337 336 336 336 336 335 334 333 332 332 331 329 327 325 324 323 323 322 322 322 321 319 315 314 313 313 316 318 320 321 319 315
316 322 325 326 327 329 330 330 331 332 333 334 335 337 338 338 337 335 335 335 334 334 333 333 332 332 331 330 329 329 329 329 329 328 326 324 322 321 320 319 318 316 315 313 311 310 310 313 318 322 319 313
308 316 319 320 322 324 324 325 326 327 329 330 332 333 334 335 334 333 332 332 332 331 330 329 328 328 327 327 326 326 327 328 328 328 327 325 322 320 319 319 319 316 315 315 313 311 308 308 314 320 318 311
301 309 313 314 317 319 319 321 323 323 326 327 329 330 331 332 332 331 330 330 329 328 327 325 324 324 323 323 323 323 324 325 325 326 326 324 322 321 319 319 321 320 319 320 320 320 316 312 310 310 312 312
296 303 306 308 312 314 314 317 319 320 323 326 326 327 328 329 330 329 328 327 326 325 324 322 320 320 319 319 319 319 320 321 322 323 324 324 323 323 321 318 318 320 323 323 323 325 324 322 318 311 312 311
292 297 299 303 306 309 310 313 315 316 320 324 323 323 324 325 327 328 326 324 323 323 322 319 317 316 315 315 314 314 315 316 318 320 321 323 322 323 323 320 317 317 322 323 324 328 326 326 325 317 315 312
288 290 293 297 300 303 305 308 310 312 317 320 318 318 319 321 323 324 323 322 321 320 320 318 316 314 312 310 310 309 310 311 313 315 318 319 320 321 321 321 318 315 316 318 321 326 325 324 318 311 317 317
283 285 288 292 295 299 301 303 306 310 313 314 314 314 315 318 320 321 322 321 319 319 319 318 316 313 310 308 306 305 305 306 307 310 314 315 315 317 317 318 317 314 311 308 310 315 316 313 303 304 313 316
279 281 285 288 291 295 297 299 304 309 309 309 310 311 313 315 316 317 319 319 319 318 318 318 316 314 310 307 305 302 300 301 303 305 308 310 310 311 313 313 313 312 309 303 300 301 302 299 297 299 304 307
Height
1547 1546 1545 1544 1543 1542 1541 1541 1540 1539 1538 1537 1536 1535 1534 1533 1531 1530 1529 1528 1527 1526 1525 1524 1523 1522 1521 1520 1519 1518 1517 1515 1514 1513 1512 1511 1509 1508 1507 1506 1505 1504 1503 1502 1501 1500 1500 1499 1499 1498 1497 1497
1547 1546 1544 1543 1543 1542 1541 1540 1540 1539 1538 1537 1536 1535 1534 1532 1531 1530 1528 1527 1526 1525 1524 1523 1522 1521 1520 1519 1518 1517 1516 1514 1513 1512 1512 1510 1509 1508 1507 1506 1505 1503 1502 1501 1499 1498 1498 1498 1497 1497 1496 1495
1546 1545 1544 1543 1542 1541 1541 1540 1540 1539 1538 1537 1536 1535 1533 1532 1531 1529 1528 1527 1525 1524 1523 1522 1521 1520 1519 1518 1517 1516 1515 1514 1513 1512 1511 1510 1509 1508 1507 1505 1504 1503 1502 1501 1499 1498 1497 1496 1496 1495 1495 1494
1546 1545 1544 1543 1542 1541 1541 1540 1539 1538 1538 1536 1535 1534 1533 1531 1530 1529 1528 1526 1525 1524 1522 1521 1520 1519 1518 1517 1516 1515 1514 1513 1512 1511 1510 1509 1508 1508 1507 1505 1504 1503 1501 1500 1499 1498 1497 1495 1494 1494 1493 1492
1545 1545 1544 1543 1542 1541 1540 1540 1539 1538 1537 1536 1534 1533 1532 1530 1529 1528 1527 1526 1524 1523 1522 1521 1520 1519 1517 1516 1515 1514 1513 1512 1511 1510 1509 1508 1507 1506 1505 1505 1503 1502 1501 1499 1498 1497 1496 1495 1494 1493 1492 1491
1545 1544 1543 1542 1542 1541 1540 1539 1538 1537 1536 1535 1533 1532 1531 1529 1528 1527 1526 1525 1523 1522 1521 1520 1519 1518 1517 1515 1514 1513 1511 1511 1510 1509 1508 1507 1506 1505 1504 1503 1502 1501 1500 1499 1498 1496 1495 1494 1493 1492 1491 1490
1545 1544 1543 1542 1541 1540 1540 1539 1538 1537 1535 1534 1533 1531 1530 1529 1528 1527 1526 1525 1523 1522 1521 1520 1518 1517 1516 1515 1513 1512 1510 1509 1508 1507 1507 1506 1505 1504 1502 1501 1500 1499 1498 1497 1496 1495 1494 1493 1492 1491 1490 1489
1545 1544 1543 1542 1541 1540 1539 1538 1537 1536 1535 1533 1532 1531 1530 1529 1528 1527 1526 1525 1524 1522 1520 1519 1517 1516 1515 1513 1512 1511 1510 1508 1507 1506 1505 1504 1503 1502 1501 1500 1499 1497 1496 1496 1495 1494 1493 1491 1491 1490 1488 1487
1544 1543 1542 1541 1540 1539 1538 1538 1536 1535 1534 1533 1532 1531 1530 1529 1528 1527 1526 1524 1523 1521 1519 1517 1516 1514 1513 1512 1511 1510 1508 1507 1506 1505 1503 1502 1501 1500 1499 1498 1497 1496 1495 1494 1493 1492 1491 1490 1489 1489 1487 1486
1543 1542 1541 1540 1539 1538 1537 1536 1536 1535 1533 1533 1532 1531 1530 1529 1528 1527 1525 1523 1522 1520 1518 1517 1515 1513 1511 1510 1509 1508 1507 1506 1505 1503 1502 1501 1500 1499 1498 1497 1496 1495 1494 1493 1492 1491 1490 1489 1488 1487 1486 1485
1543 1541 1540 1539 1538 1537 1536 1536 1535 1534 1533 1532 1531 1530 1529 1528 1527 1525 1524 1522 1521 1519 1518 1516 1514 1513 1511 1509 1508 1506 1505 1504 1503 1502 1501 1500 1499 1498 1497 1496 1495 1494 1493 1492 1491 1490 1489 1488 1487 1486 1485 1483
1542 1541 1540 1539 1538 1537 1535 1535 1534 1533 1532 1531 1530 1529 1528 1527 1525 1524 1522 1521 1519 1518 1516 1515 1514 1512 1511 1509 1508 1506 1504 1503 1501 1500 1499 1499 1498 1496 1495 1494 1493 1493 1492 1490 1489 1488 1488 1486 1485 1484 1483 1481
1541 1540 1539 1538 1537 1536 1535 1534 1533 1532 1531 1530 1529 1528 1527 1526 1524 1523 1521 1520 1519 1517 1516 1514 1513 1512 1510 1509 1507 1506 1504 1502 1500 1499 1498 1496 1496 1495 1494 1493 1491 1490 1490 1489 1488 1486 1486 1485 1483 1481 1480 1479
1539 1539 1538 1537 1536 1535 1534 1533 1533 1532 1531 1530 1529 1527 1526 1525 1523 1522 1521 1519 1518 1517 1515 1514 1512 1511 1509 1508 1506 1505 1503 1501 1500 1498 1496 1495 1494 1493 1493 1492 1490 1489 1488 1487 1486 1485 1484 1482 1481 1480 1478 1477
1539 1538 1537 1536 1535 1534 1534 1533 1532 1532 1531 1530 1528 1527 1525 1524 1523 1521 1520 1519 1518 1516 1515 1513 1512 1510 1509 1508 1506 1504 1503 1501 1499 1497 1496 1494 1492 1491 1490 1490 1489 1488 1486 1485 1484 1483 1482 1481 1479 1478 1476 1475
1538 1537 1536 1535 1534 1533 1533 1532 1531 1531 1530 1529 1528 1526 1525 1524 1522 1521 1519 1518 1517 1515 1514 1513 1511 1510 1508 1507 1505 1503 1502 1500 1499 1497 1495 1494 1492 1490 1489 1488 1487 1486 1485 1484 1483 1481 1479 1479 1477 1476 1475 1473
1536 1536 1535 1534 1533 1532 1531 1531 1530 1529 1528 1528 1527 1526 1524 1523 1522 1520 1519 1517 1516 1514 1513 1511 1510 1509 1507 1506 1504 1503 1501 1500 1498 1497 1495 1493 1491 1490 1488 1486 1485 1484 1483 1482 1481 1479 1478 1476 1475 1474 1473 1471
1535 1534 1533 1533 1532 1531 1530 1529 1528 1527 1526 1525 1525 1524 1523 1522 1521 1519 1518 1516 1515 1513 1512 1510 1509 1508 1506 1505 1503 1502 1500 1499 1497 1495 1494 1492 1490 1488 1486 1484 1482 1480 1480 1479 1478 1477 1476 1474 1473 1472 1471 1469
1534 1533 1532 1531 1531 1530 1529 1528 1527 1525 1524 1523 1522 1521 1521 1520 1519 1518 1516 1515 1513 1512 1510 1509 1507 1506 1505 1504 1502 1501 1499 1497 1496 1494 1493 1490 1488 1486 1485 1482 1480 1478 1477 1476 1475 1475 1473 1472 1471 1470 1469 1467
1532 1531 1530 1530 1529 1528 1527 1526 1525 1524 1523 1522 1521 1519 1519 1518 1517 1516 1514 1513 1512 1510 1509 1507 1506 1504 1503 1501 1500 1499 1497 1496 1494 1493 1491 1490 1487 1485 1483 1481 1479 1477 1475 1473 1473 1472 1471 1470 1468 1467 1466 1465
1530 1529 1528 1528 1527 1526 1526 1525 1524 1523 1522 1520 1519 1518 1517 1516 1515 1514 1512 1511 1510 1508 1507 1506 1504 1503 1501 1500 1498 1497 1495 1494 1492 1491 1489 1489 1487 1484 1481 1479 1477 1475 1473 1471 1470 1469 1469 1468 1467 1465 1464 1463
1528 1528 1527 1526 1525 1525 1524 1523 1523 1522 1521 1520 1518 1517 1515 1514 1512 1511 1510 1509 1508 1506 1505 1504 1502 1501 1500 1498 1497 1495 1494 1492 1491 1489 1487 1486 1485 1484 1481 1478 1476 1473 1471 1470 1468 1467 1466 1466 1465 1464 1463 1461
1527 1526 1525 1524 1524 1523 1522 1522 1521 1520 1520 1519 1517 1516 1514 1512 1511 1509 1508 1507 1505 1504 1503 1502 1500 1499 1497 1496 1495 1493 1492 1490 1489 1488 1486 1484 1483 1482 1481 1478 1475 1472 1470 1468 1466 1465 1464 1464 1463 1462 1461 1460
1525 1524 1523 1523 1522 1522 1521 1520 1520 1519 1518 1517 1516 1515 1513 1511 1509 1508 1506 1505 1503 1502 1501 1499 1498 1497 1495 1494 1492 1491 1490 1488 1487 1485 1483 1482 1480 1479 1479 1478 1476 1471 1468 1466 1464 1463 1462 1461 1461 1460 1459 1458
1522 1522 1521 1521 1520 1520 1519 1519 1518 1517 1517 1515 1514 1513 1512 1510 1508 1506 1505 1503 1501 1500 1498 1497 1496 1495 1494 1492 1491 1489 1488 1486 1485 1483 1482 1480 1479 1477 1475 1475 1475 1471 1467 1464 1461 1459 1459 1459 1458 1458 1457 1456
1520 1520 1519 1518 1518 1517 1517 1516 1515 1515 1514 1513 1512 1511 1510 1509 1507 1505 1503 1502 1500 1498 1497 1495 1494 1493 1492 1490 1489 1487 1486 1485 1483 1482 1481 1479 1477 1476 1474 1473 1472 1470 1467 1463 1460 1457 1455 1454 1454 1454 1454 1454
1517 1518 1517 1516 1516 1515 1514 1514 1513 1512 1512 1511 1510 1509 1508 1507 1505 1503 1502 1500 1499 1497 1495 1493 1492 1491 1489 1488 1487 1485 1484 1483 1482 1480 1480 1478 1475 1474 1473 1472 1472 1470 1468 1464 1461 1459 1456 1453 1451 1450 1449 1450
1515 1515 1515 1514 1513 1513 1511 1511 1510 1509 1509 1508 1507 1506 1506 1505 1503 1502 1500 1499 1497 1495 1494 1492 1490 1488 1487 1486 1485 1483 1482 1481 1480 1479 1478 1477 1475 1473 1471 1470 1470 1470 1469 1465 1462 1460 1458 1455 1452 1449 1447 1446
1513 1512 1512 1512 1511 1510 1509 1508 1508 1507 1506 1506 1505 1504 1503 1503 1501 1500 1498 1497 1495 1493 1492 1490 1488 1486 1485 1484 1483 1481 1480 1479 1478 1477 1476 1475 1474 1472 1470 1468 1467 1467 1468 1466 1463 1462 1460 1457 1454 1451 1449 1446
1510 1509 1509 1509 1508 1507 1506 1505 1504 1504 1504 1503 1503 1502 1501 1500 1499 1498 1496 1495 1493 1491 1490 1488 1486 1485 1483 1481 1480 1479 1478 1477 1476 1475 1474 1474 1472 1471 1470 1468 1466 1465 1466 1465 1464 1463 1461 1460 1457 1453 1451 1449
1507 1506 1506 1505 1505 1504 1503 1502 1501 1501 1501 1500 1500 1498 1498 1497 1496 1495 1493 1492 1490 1489 1487 1486 1484 1482 1481 1479 1478 1477 1475 1474 1474 1473 1472 1472 1471 1470 1469 1467 1465 1464 1464 1464 1462 1462 1461 1460 1458 1455 1452 1451